Arden, NC

1:50 PM EST on January 21, 2017 (GMT -0500)
Asheville

Weather History for KAVL - February, 2014

Change the Weather History Date:

Friday, February 7, 2014

  Actual Average Record
Temperature  
Mean Temperature 37 °F 39 °F  
Max Temperature 47 °F 50 °F 71 °F (1925)
Min Temperature 27 °F 28 °F -4 °F (1895)
Degree Days  
Heating Degree Days 28 26  
Month to date heating degree days 171 186  
Since 1 July heating degree days 2810 2713  
Cooling Degree Days 0 0  
Month to date cooling degree days 0 0  
Year to date cooling degree days 0 0  
Moisture  
Dew Point 22 °F    
Average Humidity 61    
Maximum Humidity 81    
Minimum Humidity 41    
Precipitation  
Precipitation 0.00 in 0.13 in 3.00 in (1873)
Month to date precipitation 1.15 0.93  
Year to date precipitation 3.48 4.60  
Snow  
Snow 0.00 in 0.10 in 6.20 in (1922)
Month to date snowfall 0.0 0.7  
Since 1 July snowfall 1.5 5.8  
Snow Depth 0.00 in    
Sea Level Pressure  
Sea Level Pressure 30.26 in    
Wind  
Wind Speed 9 mph (NNW)    
Max Wind Speed 16 mph    
Max Gust Speed 20 mph    
Visibility 10 miles    
Events      
T = Trace of Precipitation, MM = Missing Value Source: NWS Daily Summary

Daily Weather History Graph

Daily Weather History Graph

Search for Another Location

Airport or City:

Trip Planner

Search our weather history database for the weather conditions in past years. The results will help you decide how hot, cold, wet, or windy it might be!

Date:

Astronomy

Feb. 07, 2014 Rise Set
Actual Time 7:24 AM EST 6:04 PM EST
Civil Twilight 6:58 AM EST 6:30 PM EST
Nautical Twilight 6:28 AM EST 7:00 PM EST
Astronomical Twilight 5:58 AM EST 7:30 PM EST
Moon 12:17 PM EST (2/7) 1:37 AM EST (2/7)
Length of Visible Light 11h 32m
Length of Day
10h 39m
First Quarter, 59% of the Moon is Illuminated
Feb 7
First Quarter
Feb 14
Full
Feb 22
Last Quarter
Mar 1
New
Mar 8
First Quarter

Hourly Weather History & Observations

Time (EST) Temp. Windchill Dew Point Humidity Pressure Visibility Wind Dir Wind Speed Gust Speed Precip Events Conditions
12:54 AM 28.0 °F 18.6 °F 21.0 °F 75% 30.25 in 10.0 mi North 10.4 mph - N/A   Overcast
1:54 AM 28.0 °F 19.3 °F 21.0 °F 75% 30.24 in 10.0 mi North 9.2 mph - N/A   Overcast
2:54 AM 27.0 °F 17.3 °F 21.0 °F 78% 30.25 in 10.0 mi North 10.4 mph - N/A   Overcast
3:54 AM 27.0 °F 18.0 °F 21.0 °F 78% 30.26 in 10.0 mi North 9.2 mph - N/A   Overcast
4:54 AM 28.0 °F 18.6 °F 21.9 °F 78% 30.27 in 10.0 mi North 10.4 mph - N/A   Overcast
5:54 AM 28.0 °F 17.5 °F 21.9 °F 78% 30.28 in 10.0 mi North 12.7 mph - N/A   Overcast
6:54 AM 28.0 °F 19.3 °F 21.9 °F 78% 30.28 in 10.0 mi North 9.2 mph - N/A   Overcast
7:54 AM 28.0 °F 20.8 °F 21.9 °F 78% 30.31 in 10.0 mi NNW 6.9 mph - N/A   Overcast
8:54 AM 28.9 °F 21.1 °F 23.0 °F 78% 30.32 in 10.0 mi North 8.1 mph - N/A   Overcast
9:47 AM 32.0 °F 24.2 °F 24.8 °F 75% 30.28 in 10.0 mi North 9.2 mph - N/A   Scattered Clouds
9:54 AM 32.0 °F 24.8 °F 24.1 °F 73% 30.32 in 10.0 mi North 8.1 mph - N/A   Partly Cloudy
10:54 AM 33.1 °F 26.1 °F 24.1 °F 70% 30.33 in 10.0 mi North 8.1 mph - N/A   Partly Cloudy
11:54 AM 36.0 °F 30.3 °F 25.0 °F 64% 30.31 in 10.0 mi NNW 6.9 mph - N/A   Clear
12:54 PM 39.9 °F 33.9 °F 25.0 °F 55% 30.27 in 10.0 mi North 9.2 mph - N/A   Clear
1:54 PM 43.0 °F 37.2 °F 24.1 °F 47% 30.23 in 10.0 mi NNW 10.4 mph - N/A   Clear
2:54 PM 46.9 °F - 25.0 °F 42% 30.22 in 10.0 mi NNW 6.9 mph - N/A   Clear
3:54 PM 45.0 °F 40.1 °F 23.0 °F 42% 30.21 in 10.0 mi NNW 9.2 mph - N/A   Clear
4:54 PM 43.0 °F 36.8 °F 21.9 °F 43% 30.21 in 10.0 mi NNW 11.5 mph - N/A   Clear
5:54 PM 39.9 °F 31.8 °F 21.9 °F 49% 30.24 in 10.0 mi NNW 15.0 mph - N/A   Partly Cloudy
6:54 PM 36.0 °F 26.3 °F 21.0 °F 55% 30.25 in 10.0 mi NNW 16.1 mph - N/A   Partly Cloudy
7:54 PM 34.0 °F 24.6 °F 21.0 °F 59% 30.26 in 10.0 mi NNW 13.8 mph - N/A   Partly Cloudy
8:54 PM 33.1 °F 24.4 °F 21.0 °F 61% 30.27 in 10.0 mi NNW 11.5 mph - N/A   Partly Cloudy
9:54 PM 33.1 °F 26.9 °F 21.0 °F 61% 30.27 in 10.0 mi NNW 6.9 mph - N/A   Mostly Cloudy
10:54 PM 33.1 °F 30.0 °F 21.9 °F 64% 30.27 in 10.0 mi NW 3.5 mph - N/A   Overcast
11:54 PM 33.1 °F - 21.0 °F 61% 30.23 in 10.0 mi Calm Calm - N/A   Overcast